User: anonymous   Login
Location: Unspecified
(0.0000°N, 0.0000°E)
Time: 16:58:44
(UTC+00:00)
Language:

ARIANE 5 DEB (SYLDA) - Orbit

View from above orbital plane
View from above orbital plane
View from above satellite
View from above satellite

Ground track
Ground track

The orbit data is extracted from the following two-line orbital elements,

1 26722U 01011D   18142.84076913 +.00000123 +00000-0 +10595-1 0  9993
2 26722 001.7697 275.2106 7059591 245.3872 293.6950 02.22873110140152
Epoch (UTC): 22 May 2018 20:10:42
Eccentricity: 0.7059591
inclination: 1.7697°
perigee height: 901 km
apogee height: 35856 km
right ascension of ascending node: 275.2106°
argument of perigee: 245.3872°
revolutions per day: 2.22873110
mean anomaly at epoch: 293.6950°
orbit number at epoch: 14015

The dashed part of the orbit path shows where the satellite is in the earth's shadow,  

DLR